Regional Weather Roundup
Issued by NWS

Home | Current Version | Previous Version | Text Only | Print | Product List | Glossary On
Versions: 1 2 3 4 5 6 7 8 9 10 11 12 13 14 15 16 17 18 19 20 21 22 23 24 25 26 27 28 29 30 31 32 33 34 35 36 37 38 39 40 41 42 43 44 45 46 47 48 49 50
000
ASUS45 KABQ 201410
RWRNM
NEW MEXICO REGIONAL WEATHER ROUNDUP
NATIONAL WEATHER SERVICE ALBUQUERQUE NM
800 AM MDT FRI OCT 20 2017

NOTE: "FAIR" MEANS FEW OR NO CLOUDS BELOW 12,000 FEET AGL WITH NO
       SIGNIFICANT WEATHER OR OBSTRUCTIONS TO VISION.

      THIS PRODUCT IS RELEASED AS TWO VERSIONS.  ONE VERSION NEAR
      THE TOP OF THE HOUR CONTAINING PRELIMINARY DATA FROM ALBUQUERQUE
      AND OTHER STATIONS.  A FINAL VERSION WITH ADDITIONAL DATA IS
      ISSUED ABOUT 10 MINUTES AFTER THE HOUR.

NMZ501-503-504-510>518-201500-
NORTHWEST PLATEAU/NORTHCENTRAL MOUNTAINS

CITY           SKY/WX    TMP DP  RH WIND       PRES   REMARKS
FARMINGTON     FAIR      43  35  73 E7        29.94F
LOS ALAMOS     FAIR      47  40  76 SW9       30.06F
SANTA FE       FAIR      47  46  97 CALM      30.04S
TAOS           FAIR      42  36  79 N6        30.08S
ANGEL FIRE     FAIR      44  37  77 W10G17    30.09R

$$
NMZ402-403-502-505>509-201500-
WESTCENTRAL MOUNTAINS/SOUTHWEST MOUNTAINS

CITY           SKY/WX    TMP DP  RH WIND       PRES   REMARKS
GALLUP         FAIR      35  30  82 NE3       30.02F
GRANTS         FAIR      40  40  97 S5        30.07S
SILVER CITY    FAIR      44  41  90 N3        30.07F

$$
NMZ407-409-411-412-201500-
SOUTHERN DESERTS

CITY           SKY/WX    TMP DP  RH WIND       PRES   REMARKS
DEMING         FAIR      50  48  93 CALM      30.03S
LAS CRUCES     FAIR      52  51  97 CALM      30.05R
HOLLOMAN AFB   PTCLDY    52  52 100 E3        30.05F
ALAMOGORDO     FAIR      52  50  93 SE5       30.04S
T OR C         FAIR      49  47  93 CALM      30.04S

$$
NMZ519>523-201500-
CENTRAL VALLEYS/CENTRAL HIGHLANDS

CITY           SKY/WX    TMP DP  RH WIND       PRES   REMARKS
ALBUQUERQUE    FAIR      50  46  86 S7        30.03S
DOUBLE EAGLE   MOCLDY    43  43 100 CALM      30.04F
MORIARTY ARPT  FAIR      42  42 100 E3        30.06S
CLINES CORNERS FAIR      42  39  89 SW7       30.08R
BELEN          MOCLDY    51  47  89 S9        30.02F
SOCORRO        FAIR      48  46  95 S9        30.04R

$$
NMZ524>526-539-540-201500-
SOUTHCENTRAL MOUNTAINS

CITY           SKY/WX    TMP DP  RH WIND       PRES   REMARKS
RUIDOSO        FAIR      48  41  76 NE7       30.12S

$$
NMZ527>531-201500-
NORTHEAST HIGHLANDS/NORTHEAST PLAINS

CITY           SKY/WX    TMP DP  RH WIND       PRES   REMARKS
LAS VEGAS      FAIR      49  40  71 SW16      30.01F
RATON          FAIR      40  37  89 E5        29.94F
CLAYTON        FAIR      51  50  96 W8        29.90S

$$
NMZ532>537-201500-
EASTCENTRAL PLAINS

CITY           SKY/WX    TMP DP  RH WIND       PRES   REMARKS
SANTA ROSA     FAIR      49  47  93 SE8       29.98S
TUCUMCARI      FAIR      57  52  83 SW18G24   29.91F
CANNON AFB     FAIR      56  56 100 W12       30.00S
CLOVIS AIRPORT   N/A     55  52  89 SW10      29.99S

$$
NMZ028-029-538-201500-
SOUTHEAST PLAINS

CITY           SKY/WX    TMP DP  RH WIND       PRES   REMARKS
ROSWELL        FAIR      59  52  77 S13       29.97F
ARTESIA        FAIR      55  55 100 SE8       29.99R
CARLSBAD       FAIR      57  56  96 S9        29.98S
HOBBS          SUNNY     55  54  94 S10       30.02R


$$




USA.gov is the U.S. government's official web portal to all federal, state and local government web resources and services.